Year,Month,Day,Hour,Minute,Value (Times are PST for windgust in km/hr)
2010,04,04,00,00,22.50
2010,04,04,00,01,22.50
2010,04,04,00,02,20.90
2010,04,04,00,03,20.90
2010,04,04,00,04,19.30
2010,04,04,00,05,24.20
2010,04,04,00,06,22.50
2010,04,04,00,07,22.50
2010,04,04,00,08,25.70
2010,04,04,00,09,19.30
2010,04,04,00,10,24.20
2010,04,04,00,11,22.50
2010,04,04,00,12,22.50
2010,04,04,00,13,22.50
2010,04,04,00,14,25.70
2010,04,04,00,15,27.40
2010,04,04,00,16,24.20
2010,04,04,00,17,22.50
2010,04,04,00,18,20.90
2010,04,04,00,19,20.90
2010,04,04,00,20,24.20
2010,04,04,00,21,17.70
2010,04,04,00,22,24.20
2010,04,04,00,23,19.30
2010,04,04,00,24,19.30
2010,04,04,00,25,19.30
2010,04,04,00,26,17.70
2010,04,04,00,27,19.30
2010,04,04,00,28,17.70
2010,04,04,00,29,14.50
2010,04,04,00,30,19.30
2010,04,04,00,31,24.20
2010,04,04,00,32,16.10
2010,04,04,00,33,20.90
2010,04,04,00,34,12.90
2010,04,04,00,35,16.10
2010,04,04,00,36,16.10
2010,04,04,00,37,17.70
2010,04,04,00,38,27.40
2010,04,04,00,39,20.90
2010,04,04,00,40,16.10
2010,04,04,00,41,17.70
2010,04,04,00,42,16.10
2010,04,04,00,43,19.30
2010,04,04,00,44,20.90
2010,04,04,00,45,11.30
2010,04,04,00,46,19.30
2010,04,04,00,47,19.30
2010,04,04,00,48,22.50
2010,04,04,00,49,25.70
2010,04,04,00,50,25.70
2010,04,04,00,51,24.20
2010,04,04,00,52,16.10
2010,04,04,00,53,22.50
2010,04,04,00,54,24.20
2010,04,04,00,55,20.90
2010,04,04,00,56,19.30
2010,04,04,00,57,19.30
2010,04,04,00,58,19.30
2010,04,04,00,59,17.70
2010,04,04,01,00,20.90
2010,04,04,01,01,14.50
2010,04,04,01,02,20.90
2010,04,04,01,03,19.30
2010,04,04,01,04,22.50
2010,04,04,01,05,30.60
2010,04,04,01,06,29.00
2010,04,04,01,07,20.90
2010,04,04,01,08,25.70
2010,04,04,01,09,29.00
2010,04,04,01,10,40.20
2010,04,04,01,11,32.20
2010,04,04,01,12,30.60
2010,04,04,01,13,35.40
2010,04,04,01,14,24.20
2010,04,04,01,15,33.80
2010,04,04,01,16,25.70
2010,04,04,01,17,24.20
2010,04,04,01,18,32.20
2010,04,04,01,19,33.80
2010,04,04,01,20,27.40
2010,04,04,01,21,22.50
2010,04,04,01,22,32.20
2010,04,04,01,23,24.20
2010,04,04,01,24,25.70
2010,04,04,01,25,29.00
2010,04,04,01,26,19.30
2010,04,04,01,27,24.20
2010,04,04,01,28,24.20
2010,04,04,01,29,27.40
2010,04,04,01,30,20.90
2010,04,04,01,31,20.90
2010,04,04,01,32,20.90
2010,04,04,01,33,24.20
2010,04,04,01,34,24.20
2010,04,04,01,35,27.40
2010,04,04,01,36,32.20
2010,04,04,01,37,27.40
2010,04,04,01,38,27.40
2010,04,04,01,39,25.70
2010,04,04,01,40,22.50
2010,04,04,01,41,32.20
2010,04,04,01,42,33.80
2010,04,04,01,43,37.00
2010,04,04,01,44,37.00
2010,04,04,01,45,30.60
2010,04,04,01,46,30.60
2010,04,04,01,47,25.70
2010,04,04,01,48,29.00
2010,04,04,01,49,20.90
2010,04,04,01,50,33.80
2010,04,04,01,51,29.00
2010,04,04,01,52,27.40
2010,04,04,01,53,24.20
2010,04,04,01,54,33.80
2010,04,04,01,55,32.20
2010,04,04,01,56,27.40
2010,04,04,01,57,25.70
2010,04,04,01,58,25.70
2010,04,04,01,59,24.20
2010,04,04,02,00,25.70
2010,04,04,02,01,20.90
2010,04,04,02,02,29.00
2010,04,04,02,03,25.70
2010,04,04,02,04,35.40
2010,04,04,02,05,27.40
2010,04,04,02,06,33.80
2010,04,04,02,07,25.70
2010,04,04,02,08,25.70
2010,04,04,02,09,32.20
2010,04,04,02,10,37.00
2010,04,04,02,11,32.20
2010,04,04,02,12,32.20
2010,04,04,02,13,29.00
2010,04,04,02,14,24.20
2010,04,04,02,15,24.20
2010,04,04,02,16,19.30
2010,04,04,02,17,24.20
2010,04,04,02,18,29.00
2010,04,04,02,19,25.70
2010,04,04,02,20,24.20
2010,04,04,02,21,22.50
2010,04,04,02,22,25.70
2010,04,04,02,23,24.20
2010,04,04,02,24,20.90
2010,04,04,02,25,20.90
2010,04,04,02,26,29.00
2010,04,04,02,27,25.70
2010,04,04,02,28,25.70
2010,04,04,02,29,17.70
2010,04,04,02,30,35.40
2010,04,04,02,31,27.40
2010,04,04,02,32,22.50
2010,04,04,02,33,22.50
2010,04,04,02,34,25.70
2010,04,04,02,35,27.40
2010,04,04,02,36,37.00
2010,04,04,02,37,32.20
2010,04,04,02,38,37.00
2010,04,04,02,39,41.80
2010,04,04,02,40,35.40
2010,04,04,02,41,35.40
2010,04,04,02,42,27.40
2010,04,04,02,43,25.70
2010,04,04,02,44,29.00
2010,04,04,02,45,27.40
2010,04,04,02,46,19.30
2010,04,04,02,47,22.50
2010,04,04,02,48,24.20
2010,04,04,02,49,37.00
2010,04,04,02,50,32.20
2010,04,04,02,51,35.40
2010,04,04,02,52,40.20
2010,04,04,02,53,35.40
2010,04,04,02,54,37.00
2010,04,04,02,55,33.80
2010,04,04,02,56,27.40
2010,04,04,02,57,27.40
2010,04,04,02,58,22.50
2010,04,04,02,59,25.70
2010,04,04,03,00,25.70
2010,04,04,03,01,27.40
2010,04,04,03,02,29.00
2010,04,04,03,03,32.20
2010,04,04,03,04,29.00
2010,04,04,03,05,35.40
2010,04,04,03,06,35.40
2010,04,04,03,07,35.40
2010,04,04,03,08,33.80
2010,04,04,03,09,30.60
2010,04,04,03,10,30.60
2010,04,04,03,11,43.50
2010,04,04,03,12,38.60
2010,04,04,03,13,38.60
2010,04,04,03,14,30.60
2010,04,04,03,15,40.20
2010,04,04,03,16,25.70
2010,04,04,03,17,30.60
2010,04,04,03,18,27.40
2010,04,04,03,19,22.50
2010,04,04,03,20,27.40
2010,04,04,03,21,20.90
2010,04,04,03,22,24.20
2010,04,04,03,23,16.10
2010,04,04,03,24,32.20
2010,04,04,03,25,29.00
2010,04,04,03,26,32.20
2010,04,04,03,27,29.00
2010,04,04,03,28,30.60
2010,04,04,03,29,27.40
2010,04,04,03,30,30.60
2010,04,04,03,31,41.80
2010,04,04,03,32,37.00
2010,04,04,03,33,29.00
2010,04,04,03,34,46.70
2010,04,04,03,35,33.80
2010,04,04,03,36,25.70
2010,04,04,03,37,24.20
2010,04,04,03,38,30.60
2010,04,04,03,39,29.00
2010,04,04,03,40,29.00
2010,04,04,03,41,25.70
2010,04,04,03,42,25.70
2010,04,04,03,43,25.70
2010,04,04,03,44,29.00
2010,04,04,03,45,29.00
2010,04,04,03,46,29.00
2010,04,04,03,47,22.50
2010,04,04,03,48,19.30
2010,04,04,03,49,22.50
2010,04,04,03,50,29.00
2010,04,04,03,51,32.20
2010,04,04,03,52,37.00
2010,04,04,03,53,35.40
2010,04,04,03,54,27.40
2010,04,04,03,55,40.20
2010,04,04,03,56,32.20
2010,04,04,03,57,38.60
2010,04,04,03,58,38.60
2010,04,04,03,59,33.80
2010,04,04,04,00,38.60
2010,04,04,04,01,38.60
2010,04,04,04,02,45.10
2010,04,04,04,03,40.20
2010,04,04,04,04,46.70
2010,04,04,04,05,40.20
2010,04,04,04,06,40.20
2010,04,04,04,07,38.60
2010,04,04,04,08,30.60
2010,04,04,04,09,40.20
2010,04,04,04,10,33.80
2010,04,04,04,11,37.00
2010,04,04,04,12,35.40
2010,04,04,04,13,27.40
2010,04,04,04,14,33.80
2010,04,04,04,15,32.20
2010,04,04,04,16,35.40
2010,04,04,04,17,38.60
2010,04,04,04,18,37.00
2010,04,04,04,19,32.20
2010,04,04,04,20,32.20
2010,04,04,04,21,33.80
2010,04,04,04,22,27.40
2010,04,04,04,23,38.60
2010,04,04,04,24,38.60
2010,04,04,04,25,30.60
2010,04,04,04,26,35.40
2010,04,04,04,27,29.00
2010,04,04,04,28,29.00
2010,04,04,04,29,30.60
2010,04,04,04,30,33.80
2010,04,04,04,31,33.80
2010,04,04,04,32,37.00
2010,04,04,04,33,32.20
2010,04,04,04,34,27.40
2010,04,04,04,35,25.70
2010,04,04,04,36,25.70
2010,04,04,04,37,32.20
2010,04,04,04,38,30.60
2010,04,04,04,39,30.60
2010,04,04,04,40,32.20
2010,04,04,04,41,33.80
2010,04,04,04,42,40.20
2010,04,04,04,43,27.40
2010,04,04,04,44,30.60
2010,04,04,04,45,25.70
2010,04,04,04,46,29.00
2010,04,04,04,47,27.40
2010,04,04,04,48,35.40
2010,04,04,04,49,27.40
2010,04,04,04,50,24.20
2010,04,04,04,51,32.20
2010,04,04,04,52,30.60
2010,04,04,04,53,22.50
2010,04,04,04,54,24.20
2010,04,04,04,55,41.80
2010,04,04,04,56,32.20
2010,04,04,04,57,41.80
2010,04,04,04,58,32.20
2010,04,04,04,59,33.80
2010,04,04,05,00,40.20
2010,04,04,05,01,40.20
2010,04,04,05,02,38.60
2010,04,04,05,03,30.60
2010,04,04,05,04,29.00
2010,04,04,05,05,33.80
2010,04,04,05,06,49.90
2010,04,04,05,07,37.00
2010,04,04,05,08,43.50
2010,04,04,05,09,46.70
2010,04,04,05,10,30.60
2010,04,04,05,11,46.70
2010,04,04,05,12,32.20
2010,04,04,05,13,40.20
2010,04,04,05,14,41.80
2010,04,04,05,15,32.20
2010,04,04,05,16,37.00
2010,04,04,05,17,30.60
2010,04,04,05,18,37.00
2010,04,04,05,19,33.80
2010,04,04,05,20,38.60
2010,04,04,05,21,41.80
2010,04,04,05,22,38.60
2010,04,04,05,23,32.20
2010,04,04,05,24,35.40
2010,04,04,05,25,35.40
2010,04,04,05,26,37.00
2010,04,04,05,27,22.50
2010,04,04,05,28,29.00
2010,04,04,05,29,24.20
2010,04,04,05,30,29.00
2010,04,04,05,31,22.50
2010,04,04,05,32,25.70
2010,04,04,05,33,33.80
2010,04,04,05,34,35.40
2010,04,04,05,35,29.00
2010,04,04,05,36,32.20
2010,04,04,05,37,37.00
2010,04,04,05,38,35.40
2010,04,04,05,39,40.20
2010,04,04,05,40,37.00
2010,04,04,05,41,32.20
2010,04,04,05,42,38.60
2010,04,04,05,43,32.20
2010,04,04,05,44,29.00
2010,04,04,05,45,35.40
2010,04,04,05,46,27.40
2010,04,04,05,47,32.20
2010,04,04,05,48,32.20
2010,04,04,05,49,35.40
2010,04,04,05,50,35.40
2010,04,04,05,51,30.60
2010,04,04,05,52,27.40
2010,04,04,05,53,29.00
2010,04,04,05,54,43.50
2010,04,04,05,55,29.00
2010,04,04,05,56,35.40
2010,04,04,05,57,35.40
2010,04,04,05,58,29.00
2010,04,04,05,59,30.60
2010,04,04,06,00,25.70
2010,04,04,06,01,45.10
2010,04,04,06,02,43.50
2010,04,04,06,03,35.40
2010,04,04,06,04,40.20
2010,04,04,06,05,33.80
2010,04,04,06,06,37.00
2010,04,04,06,07,38.60
2010,04,04,06,08,32.20
2010,04,04,06,09,41.80
2010,04,04,06,10,32.20
2010,04,04,06,11,37.00
2010,04,04,06,12,32.20
2010,04,04,06,13,29.00
2010,04,04,06,14,45.10
2010,04,04,06,15,38.60
2010,04,04,06,16,37.00
2010,04,04,06,17,35.40
2010,04,04,06,18,40.20
2010,04,04,06,19,33.80
2010,04,04,06,20,27.40
2010,04,04,06,21,40.20
2010,04,04,06,22,33.80
2010,04,04,06,23,29.00
2010,04,04,06,24,32.20
2010,04,04,06,25,45.10
2010,04,04,06,26,40.20
2010,04,04,06,27,40.20
2010,04,04,06,28,27.40
2010,04,04,06,29,37.00
2010,04,04,06,30,37.00
2010,04,04,06,31,35.40
2010,04,04,06,32,29.00
2010,04,04,06,33,33.80
2010,04,04,06,34,38.60
2010,04,04,06,35,35.40
2010,04,04,06,36,29.00
2010,04,04,06,37,32.20
2010,04,04,06,38,32.20
2010,04,04,06,39,43.50
2010,04,04,06,40,38.60
2010,04,04,06,41,40.20
2010,04,04,06,42,40.20
2010,04,04,06,43,37.00
2010,04,04,06,44,32.20
2010,04,04,06,45,37.00
2010,04,04,06,46,40.20
2010,04,04,06,47,33.80
2010,04,04,06,48,35.40
2010,04,04,06,49,46.70
2010,04,04,06,50,40.20
2010,04,04,06,51,38.60
2010,04,04,06,52,43.50
2010,04,04,06,53,33.80
2010,04,04,06,54,32.20
2010,04,04,06,55,35.40
2010,04,04,06,56,40.20
2010,04,04,06,57,24.20
2010,04,04,06,58,30.60
2010,04,04,06,59,33.80
2010,04,04,07,00,33.80
2010,04,04,07,01,48.30
2010,04,04,07,02,49.90
2010,04,04,07,03,48.30
2010,04,04,07,04,48.30
2010,04,04,07,05,37.00
2010,04,04,07,06,38.60
2010,04,04,07,07,37.00
2010,04,04,07,08,43.50
2010,04,04,07,09,41.80
2010,04,04,07,10,37.00
2010,04,04,07,11,38.60
2010,04,04,07,12,41.80
2010,04,04,07,13,43.50
2010,04,04,07,14,35.40
2010,04,04,07,15,40.20
2010,04,04,07,16,33.80
2010,04,04,07,17,29.00
2010,04,04,07,18,32.20
2010,04,04,07,19,29.00
2010,04,04,07,20,25.70
2010,04,04,07,21,27.40
2010,04,04,07,22,43.50
2010,04,04,07,23,40.20
2010,04,04,07,24,40.20
2010,04,04,07,25,29.00
2010,04,04,07,26,33.80
2010,04,04,07,27,37.00
2010,04,04,07,28,41.80
2010,04,04,07,29,41.80
2010,04,04,07,30,38.60
2010,04,04,07,31,40.20
2010,04,04,07,32,37.00
2010,04,04,07,33,29.00
2010,04,04,07,34,30.60
2010,04,04,07,35,37.00
2010,04,04,07,36,38.60
2010,04,04,07,37,30.60
2010,04,04,07,38,37.00
2010,04,04,07,39,32.20
2010,04,04,07,40,27.40
2010,04,04,07,41,27.40
2010,04,04,07,42,38.60
2010,04,04,07,43,27.40
2010,04,04,07,44,29.00
2010,04,04,07,45,33.80
2010,04,04,07,46,30.60
2010,04,04,07,47,35.40
2010,04,04,07,48,37.00
2010,04,04,07,49,37.00
2010,04,04,07,50,38.60
2010,04,04,07,51,40.20
2010,04,04,07,52,32.20
2010,04,04,07,53,37.00
2010,04,04,07,54,29.00
2010,04,04,07,55,40.20
2010,04,04,07,56,37.00
2010,04,04,07,57,38.60
2010,04,04,07,58,33.80
2010,04,04,07,59,46.70
2010,04,04,08,00,35.40
2010,04,04,08,01,43.50
2010,04,04,08,02,41.80
2010,04,04,08,03,41.80
2010,04,04,08,04,30.60
2010,04,04,08,05,41.80
2010,04,04,08,06,43.50
2010,04,04,08,07,30.60
2010,04,04,08,08,40.20
2010,04,04,08,09,37.00
2010,04,04,08,10,27.40
2010,04,04,08,11,32.20
2010,04,04,08,12,33.80
2010,04,04,08,13,35.40
2010,04,04,08,14,40.20
2010,04,04,08,15,33.80
2010,04,04,08,16,38.60
2010,04,04,08,17,37.00
2010,04,04,08,18,38.60
2010,04,04,08,19,27.40
2010,04,04,08,20,25.70
2010,04,04,08,21,29.00
2010,04,04,08,22,29.00
2010,04,04,08,23,27.40
2010,04,04,08,24,29.00
2010,04,04,08,25,25.70
2010,04,04,08,26,37.00
2010,04,04,08,27,32.20
2010,04,04,08,28,30.60
2010,04,04,08,29,37.00
2010,04,04,08,30,30.60
2010,04,04,08,31,32.20
2010,04,04,08,32,33.80
2010,04,04,08,33,33.80
2010,04,04,08,34,30.60
2010,04,04,08,35,37.00
2010,04,04,08,36,27.40
2010,04,04,08,37,32.20
2010,04,04,08,38,30.60
2010,04,04,08,39,22.50
2010,04,04,08,40,20.90
2010,04,04,08,41,30.60
2010,04,04,08,42,32.20
2010,04,04,08,43,32.20
2010,04,04,08,44,30.60
2010,04,04,08,45,22.50
2010,04,04,08,46,24.20
2010,04,04,08,47,20.90
2010,04,04,08,48,27.40
2010,04,04,08,49,30.60
2010,04,04,08,50,25.70
2010,04,04,08,51,35.40
2010,04,04,08,52,30.60
2010,04,04,08,53,35.40
2010,04,04,08,54,24.20
2010,04,04,08,55,25.70
2010,04,04,08,56,27.40
2010,04,04,08,57,29.00
2010,04,04,08,58,24.20
2010,04,04,08,59,25.70
2010,04,04,09,00,22.50
2010,04,04,09,01,25.70
2010,04,04,09,02,32.20
2010,04,04,09,03,25.70
2010,04,04,09,04,25.70
2010,04,04,09,05,30.60
2010,04,04,09,06,20.90
2010,04,04,09,07,29.00
2010,04,04,09,08,25.70
2010,04,04,09,09,25.70
2010,04,04,09,10,20.90
2010,04,04,09,11,19.30
2010,04,04,09,12,25.70
2010,04,04,09,13,19.30
2010,04,04,09,14,22.50
2010,04,04,09,15,22.50
2010,04,04,09,16,22.50
2010,04,04,09,17,19.30
2010,04,04,09,18,22.50
2010,04,04,09,19,19.30
2010,04,04,09,20,22.50
2010,04,04,09,21,22.50
2010,04,04,09,22,20.90
2010,04,04,09,23,29.00
2010,04,04,09,24,20.90
2010,04,04,09,25,25.70
2010,04,04,09,26,27.40
2010,04,04,09,27,20.90
2010,04,04,09,28,22.50
2010,04,04,09,29,27.40
2010,04,04,09,30,29.00
2010,04,04,09,31,24.20
2010,04,04,09,32,24.20
2010,04,04,09,33,24.20
2010,04,04,09,34,22.50
2010,04,04,09,35,25.70
2010,04,04,09,36,33.80
2010,04,04,09,37,29.00
2010,04,04,09,38,30.60
2010,04,04,09,39,24.20
2010,04,04,09,40,22.50
2010,04,04,09,41,27.40
2010,04,04,09,42,20.90
2010,04,04,09,43,20.90
2010,04,04,09,44,19.30
2010,04,04,09,45,25.70
2010,04,04,09,46,20.90
2010,04,04,09,47,32.20
2010,04,04,09,48,29.00
2010,04,04,09,49,27.40
2010,04,04,09,50,33.80
2010,04,04,09,51,30.60
2010,04,04,09,52,29.00
2010,04,04,09,53,22.50
2010,04,04,09,54,27.40
2010,04,04,09,55,20.90
2010,04,04,09,56,24.20
2010,04,04,09,57,20.90
2010,04,04,09,58,19.30
2010,04,04,09,59,20.90
2010,04,04,10,00,19.30
2010,04,04,10,01,24.20
2010,04,04,10,02,22.50
2010,04,04,10,03,25.70
2010,04,04,10,04,29.00
2010,04,04,10,05,27.40
2010,04,04,10,06,32.20
2010,04,04,10,07,24.20
2010,04,04,10,08,24.20
2010,04,04,10,09,25.70
2010,04,04,10,10,24.20
2010,04,04,10,11,22.50
2010,04,04,10,12,24.20
2010,04,04,10,13,19.30
2010,04,04,10,14,22.50
2010,04,04,10,15,22.50
2010,04,04,10,16,20.90
2010,04,04,10,17,27.40
2010,04,04,10,18,25.70
2010,04,04,10,19,22.50
2010,04,04,10,20,24.20
2010,04,04,10,21,25.70
2010,04,04,10,22,24.20
2010,04,04,10,23,30.60
2010,04,04,10,24,32.20
2010,04,04,10,25,27.40
2010,04,04,10,26,24.20
2010,04,04,10,27,27.40
2010,04,04,10,28,30.60
2010,04,04,10,29,30.60
2010,04,04,10,30,24.20
2010,04,04,10,31,24.20
2010,04,04,10,32,22.50
2010,04,04,10,33,20.90
2010,04,04,10,34,25.70
2010,04,04,10,35,27.40
2010,04,04,10,36,25.70
2010,04,04,10,37,25.70
2010,04,04,10,38,25.70
2010,04,04,10,39,29.00
2010,04,04,10,40,24.20
2010,04,04,10,41,25.70
2010,04,04,10,42,29.00
2010,04,04,10,43,22.50
2010,04,04,10,44,29.00
2010,04,04,10,45,32.20
2010,04,04,10,46,30.60
2010,04,04,10,47,24.20
2010,04,04,10,48,20.90
2010,04,04,10,49,17.70
2010,04,04,10,50,24.20
2010,04,04,10,51,22.50
2010,04,04,10,52,20.90
2010,04,04,10,53,25.70
2010,04,04,10,54,25.70
2010,04,04,10,55,19.30
2010,04,04,10,56,20.90
2010,04,04,10,57,14.50
2010,04,04,10,58,20.90
2010,04,04,10,59,17.70
2010,04,04,11,00,19.30
2010,04,04,11,01,19.30
2010,04,04,11,02,19.30
2010,04,04,11,03,14.50
2010,04,04,11,04,12.90
2010,04,04,11,05,17.70
2010,04,04,11,06,22.50
2010,04,04,11,07,17.70
2010,04,04,11,08,17.70
2010,04,04,11,09,20.90
2010,04,04,11,10,14.50
2010,04,04,11,11,17.70
2010,04,04,11,12,20.90
2010,04,04,11,13,19.30
2010,04,04,11,14,22.50
2010,04,04,11,15,17.70
2010,04,04,11,16,25.70
2010,04,04,11,17,24.20
2010,04,04,11,18,16.10
2010,04,04,11,19,17.70
2010,04,04,11,20,24.20
2010,04,04,11,21,22.50
2010,04,04,11,22,24.20
2010,04,04,11,23,32.20
2010,04,04,11,24,25.70
2010,04,04,11,25,25.70
2010,04,04,11,26,30.60
2010,04,04,11,27,32.20
2010,04,04,11,28,29.00
2010,04,04,11,29,32.20
2010,04,04,11,30,30.60
2010,04,04,11,31,27.40
2010,04,04,11,32,24.20
2010,04,04,11,33,35.40
2010,04,04,11,34,33.80
2010,04,04,11,35,30.60
2010,04,04,11,36,29.00
2010,04,04,11,37,27.40
2010,04,04,11,38,25.70
2010,04,04,11,39,27.40
2010,04,04,11,40,22.50
2010,04,04,11,41,24.20
2010,04,04,11,42,22.50
2010,04,04,11,43,25.70
2010,04,04,11,44,25.70
2010,04,04,11,45,24.20
2010,04,04,11,46,17.70
2010,04,04,11,47,16.10
2010,04,04,11,48,19.30
2010,04,04,11,49,17.70
2010,04,04,11,50,19.30
2010,04,04,11,51,16.10
2010,04,04,11,52,17.70
2010,04,04,11,53,19.30
2010,04,04,11,54,19.30
2010,04,04,11,55,17.70
2010,04,04,11,56,20.90
2010,04,04,11,57,16.10
2010,04,04,11,58,20.90
2010,04,04,11,59,17.70
2010,04,04,12,00,19.30
2010,04,04,12,01,22.50
2010,04,04,12,02,24.20
2010,04,04,12,03,16.10
2010,04,04,12,04,17.70
2010,04,04,12,05,17.70
2010,04,04,12,06,19.30
2010,04,04,12,07,16.10
2010,04,04,12,08,20.90
2010,04,04,12,09,20.90
2010,04,04,12,10,24.20
2010,04,04,12,11,17.70
2010,04,04,12,12,16.10
2010,04,04,12,13,16.10
2010,04,04,12,14,20.90
2010,04,04,12,15,22.50
2010,04,04,12,16,25.70
2010,04,04,12,17,27.40
2010,04,04,12,18,17.70
2010,04,04,12,19,20.90
2010,04,04,12,20,20.90
2010,04,04,12,21,17.70
2010,04,04,12,22,16.10
2010,04,04,12,23,11.30
2010,04,04,12,24,16.10
2010,04,04,12,25,22.50
2010,04,04,12,26,20.90
2010,04,04,12,27,17.70
2010,04,04,12,28,25.70
2010,04,04,12,29,32.20
2010,04,04,12,30,17.70
2010,04,04,12,31,16.10
2010,04,04,12,32,17.70
2010,04,04,12,33,11.30
2010,04,04,12,34,22.50
2010,04,04,12,35,16.10
2010,04,04,12,36,22.50
2010,04,04,12,37,16.10
2010,04,04,12,38,24.20
2010,04,04,12,39,22.50
2010,04,04,12,40,17.70
2010,04,04,12,41,16.10
2010,04,04,12,42,22.50
2010,04,04,12,43,25.70
2010,04,04,12,44,22.50
2010,04,04,12,45,24.20
2010,04,04,12,46,32.20
2010,04,04,12,47,20.90
2010,04,04,12,48,38.60
2010,04,04,12,49,22.50
2010,04,04,12,50,25.70
2010,04,04,12,51,27.40
2010,04,04,12,52,24.20
2010,04,04,12,53,32.20
2010,04,04,12,54,30.60
2010,04,04,12,55,33.80
2010,04,04,12,56,30.60
2010,04,04,12,57,27.40
2010,04,04,12,58,40.20
2010,04,04,12,59,33.80
2010,04,04,13,00,38.60
2010,04,04,13,01,32.20
2010,04,04,13,02,33.80
2010,04,04,13,03,38.60
2010,04,04,13,04,33.80
2010,04,04,13,05,35.40
2010,04,04,13,06,38.60
2010,04,04,13,07,40.20
2010,04,04,13,08,35.40
2010,04,04,13,09,48.30
2010,04,04,13,10,38.60
2010,04,04,13,11,37.00
2010,04,04,13,12,33.80
2010,04,04,13,13,32.20
2010,04,04,13,14,43.50
2010,04,04,13,15,33.80
2010,04,04,13,16,37.00
2010,04,04,13,17,37.00
2010,04,04,13,18,41.80
2010,04,04,13,19,43.50
2010,04,04,13,20,35.40
2010,04,04,13,21,30.60
2010,04,04,13,22,37.00
2010,04,04,13,23,41.80
2010,04,04,13,24,40.20
2010,04,04,13,25,38.60
2010,04,04,13,26,43.50
2010,04,04,13,27,37.00
2010,04,04,13,28,35.40
2010,04,04,13,29,41.80
2010,04,04,13,30,40.20
2010,04,04,13,31,35.40
2010,04,04,13,32,32.20
2010,04,04,13,33,40.20
2010,04,04,13,34,40.20
2010,04,04,13,35,37.00
2010,04,04,13,36,32.20
2010,04,04,13,37,32.20
2010,04,04,13,38,33.80
2010,04,04,13,39,40.20
2010,04,04,13,40,40.20
2010,04,04,13,41,35.40
2010,04,04,13,42,29.00
2010,04,04,13,43,40.20
2010,04,04,13,44,29.00
2010,04,04,13,45,24.20
2010,04,04,13,46,29.00
2010,04,04,13,47,37.00
2010,04,04,13,48,24.20
2010,04,04,13,49,33.80
2010,04,04,13,50,27.40
2010,04,04,13,51,38.60
2010,04,04,13,52,40.20
2010,04,04,13,53,35.40
2010,04,04,13,54,32.20
2010,04,04,13,55,27.40
2010,04,04,13,56,37.00
2010,04,04,13,57,45.10
2010,04,04,13,58,51.50
2010,04,04,13,59,46.70
2010,04,04,14,00,38.60
2010,04,04,14,01,33.80
2010,04,04,14,02,30.60
2010,04,04,14,03,30.60
2010,04,04,14,04,35.40
2010,04,04,14,05,35.40
2010,04,04,14,06,32.20
2010,04,04,14,07,25.70
2010,04,04,14,08,32.20
2010,04,04,14,09,40.20
2010,04,04,14,10,33.80
2010,04,04,14,11,27.40
2010,04,04,14,12,43.50
2010,04,04,14,13,48.30
2010,04,04,14,14,33.80
2010,04,04,14,15,37.00
2010,04,04,14,16,37.00
2010,04,04,14,17,38.60
2010,04,04,14,18,41.80
2010,04,04,14,19,45.10
2010,04,04,14,20,41.80
2010,04,04,14,21,38.60
2010,04,04,14,22,41.80
2010,04,04,14,23,38.60
2010,04,04,14,24,43.50
2010,04,04,14,25,53.10
2010,04,04,14,26,45.10
2010,04,04,14,27,38.60
2010,04,04,14,28,46.70
2010,04,04,14,29,43.50
2010,04,04,14,30,46.70
2010,04,04,14,31,46.70
2010,04,04,14,32,43.50
2010,04,04,14,33,27.40
2010,04,04,14,34,48.30
2010,04,04,14,35,41.80
2010,04,04,14,36,33.80
2010,04,04,14,37,43.50
2010,04,04,14,38,33.80
2010,04,04,14,39,53.10
2010,04,04,14,40,38.60
2010,04,04,14,41,45.10
2010,04,04,14,42,40.20
2010,04,04,14,43,43.50
2010,04,04,14,44,41.80
2010,04,04,14,45,38.60
2010,04,04,14,46,32.20
2010,04,04,14,47,48.30
2010,04,04,14,48,35.40
2010,04,04,14,49,46.70
2010,04,04,14,50,46.70
2010,04,04,14,51,45.10
2010,04,04,14,52,51.50
2010,04,04,14,53,35.40
2010,04,04,14,54,43.50
2010,04,04,14,55,45.10
2010,04,04,14,56,37.00
2010,04,04,14,57,41.80
2010,04,04,14,58,43.50
2010,04,04,14,59,38.60
2010,04,04,15,00,33.80
2010,04,04,15,01,33.80
2010,04,04,15,02,32.20
2010,04,04,15,03,40.20
2010,04,04,15,04,40.20
2010,04,04,15,05,43.50
2010,04,04,15,06,38.60
2010,04,04,15,07,35.40
2010,04,04,15,08,38.60
2010,04,04,15,09,38.60
2010,04,04,15,10,33.80
2010,04,04,15,11,45.10
2010,04,04,15,12,48.30
2010,04,04,15,13,30.60
2010,04,04,15,14,48.30
2010,04,04,15,15,62.70
2010,04,04,15,16,40.20
2010,04,04,15,17,38.60
2010,04,04,15,18,40.20
2010,04,04,15,19,30.60
2010,04,04,15,20,37.00
2010,04,04,15,21,43.50
2010,04,04,15,22,35.40
2010,04,04,15,23,45.10
2010,04,04,15,24,35.40
2010,04,04,15,25,51.50
2010,04,04,15,26,46.70
2010,04,04,15,27,35.40
2010,04,04,15,28,38.60
2010,04,04,15,29,38.60
2010,04,04,15,30,38.60
2010,04,04,15,31,45.10
2010,04,04,15,32,37.00
2010,04,04,15,33,46.70
2010,04,04,15,34,35.40
2010,04,04,15,35,46.70
2010,04,04,15,36,41.80
2010,04,04,15,37,45.10
2010,04,04,15,38,33.80
2010,04,04,15,39,37.00
2010,04,04,15,40,29.00
2010,04,04,15,41,38.60
2010,04,04,15,42,45.10
2010,04,04,15,43,53.10
2010,04,04,15,44,49.90
2010,04,04,15,45,43.50
2010,04,04,15,46,46.70
2010,04,04,15,47,40.20
2010,04,04,15,48,41.80
2010,04,04,15,49,35.40
2010,04,04,15,50,43.50
2010,04,04,15,51,29.00
2010,04,04,15,52,37.00
2010,04,04,15,53,33.80
2010,04,04,15,54,35.40
2010,04,04,15,55,35.40
2010,04,04,15,56,46.70
2010,04,04,15,57,40.20
2010,04,04,15,58,46.70
2010,04,04,15,59,38.60
2010,04,04,16,00,33.80
2010,04,04,16,01,30.60
2010,04,04,16,02,41.80
2010,04,04,16,03,35.40
2010,04,04,16,04,33.80
2010,04,04,16,05,27.40
2010,04,04,16,06,30.60
2010,04,04,16,07,24.20
2010,04,04,16,08,30.60
2010,04,04,16,09,27.40
2010,04,04,16,10,25.70
2010,04,04,16,11,17.70
2010,04,04,16,12,24.20
2010,04,04,16,13,35.40
2010,04,04,16,14,27.40
2010,04,04,16,15,40.20
2010,04,04,16,16,48.30
2010,04,04,16,17,48.30
2010,04,04,16,18,43.50
2010,04,04,16,19,43.50
2010,04,04,16,20,46.70
2010,04,04,16,21,46.70
2010,04,04,16,22,64.40
2010,04,04,16,23,41.80
2010,04,04,16,24,51.50
2010,04,04,16,25,49.90
2010,04,04,16,26,49.90
2010,04,04,16,27,48.30
2010,04,04,16,28,40.20
2010,04,04,16,29,43.50
2010,04,04,16,30,40.20
2010,04,04,16,31,33.80
2010,04,04,16,32,35.40
2010,04,04,16,33,40.20
2010,04,04,16,34,41.80
2010,04,04,16,35,51.50
2010,04,04,16,36,38.60
2010,04,04,16,37,57.90
2010,04,04,16,38,57.90
2010,04,04,16,39,57.90
2010,04,04,16,40,57.90
2010,04,04,16,41,56.30
2010,04,04,16,42,49.90
2010,04,04,16,43,43.50
2010,04,04,16,44,41.80
2010,04,04,16,45,43.50
2010,04,04,16,46,43.50
2010,04,04,16,47,45.10
2010,04,04,16,48,51.50
2010,04,04,16,49,51.50
2010,04,04,16,50,38.60
2010,04,04,16,51,38.60
2010,04,04,16,52,41.80
2010,04,04,16,53,35.40
2010,04,04,16,54,30.60
2010,04,04,16,55,20.90
2010,04,04,16,56,27.40
2010,04,04,16,57,35.40
2010,04,04,16,58,35.40
2010,04,04,16,59,35.40
2010,04,04,17,00,41.80
2010,04,04,17,01,41.80
2010,04,04,17,02,35.40
2010,04,04,17,03,32.20
2010,04,04,17,04,38.60
2010,04,04,17,05,35.40
2010,04,04,17,06,43.50
2010,04,04,17,07,37.00
2010,04,04,17,08,40.20
2010,04,04,17,09,24.20
2010,04,04,17,10,32.20
2010,04,04,17,11,46.70
2010,04,04,17,12,41.80
2010,04,04,17,13,43.50
2010,04,04,17,14,37.00
2010,04,04,17,15,35.40
2010,04,04,17,16,41.80
2010,04,04,17,17,51.50
2010,04,04,17,18,41.80
2010,04,04,17,19,48.30